Regional Weather Roundup
Issued by NWS Upton, NY

Current Version | Previous Version | Text Only | Print | Product List | Glossary On
Versions: 1 2 3 4 5 6 7 8 9 10 11 12 13 14 15 16 17 18 19 20 21 22 23 24 25 26 27 28 29 30 31 32 33 34 35 36 37 38 39 40 41 42 43 44 45 46 47 48 49 50
000 ASUS41 KOKX 040204 RWROKX REGIONAL WEATHER ROUNDUP NATIONAL WEATHER SERVICE NEW YORK NY 1000 PM EDT MON AUG 03 2015 NOTE: "FAIR" INDICATES FEW OR NO CLOUDS BELOW 12,000 FEET WITH NO SIGNIFICANT WEATHER AND/OR OBSTRUCTIONS TO VISIBILITY. NYZ071-072-176-178-NJZ106-104-040300- NEW YORK CITY METRO AREA CITY SKY/WX TMP DP RH WIND PRES REMARKS CENTRAL PARK CLEAR 84 57 39 VRB6 29.84R LAGUARDIA APRT MOCLDY 86 58 38 SW9 29.80R KENNEDY INTL PTCLDY 80 71 74 S12 29.83R NEWARK/LIBERTY PTCLDY 84 58 40 SW10 29.81R BRNX BOT. GARD N/A 84 57 39 SW14 29.82R TETERBORO PTCLDY 85 57 38 SW9 29.79R $$ NYZ177-179-078>081-040300- LONG ISLAND NEW YORK CITY SKY/WX TMP DP RH WIND PRES REMARKS FARMINGDALE CLEAR 78 73 84 SW15 29.83R ISLIP PTCLDY 78 73 84 SW12 29.81R SHIRLEY PTCLDY 78 74 87 SW8G21 29.84R WESTHAMPTON CLEAR 77 74 90 SW9 29.85R MONTAUK POINT N/A 76 72 87 VRB7 29.85R $$ NYZ052-065-067-040300- HUDSON VALLEY CITY SKY/WX TMP DP RH WIND PRES REMARKS WHITE PLAINS CLEAR 75 68 78 CALM 29.82R NEWBURGH PTCLDY 79 63 57 SW6 29.81R MONTGOMERY CLEAR 73 64 73 SW7 29.81R POUGHKEEPSIE CLEAR 75 63 66 CALM 29.78R ALBANY TSTM 70 66 87 CALM 29.80R $$ NJZ001-105-106-008-010-013-015-019>022-104-040300- NEW JERSEY CITY SKY/WX TMP DP RH WIND PRES REMARKS NEWARK/LIBERTY PTCLDY 84 58 40 SW10 29.81R TETERBORO PTCLDY 85 57 38 SW9 29.79R CALDWELL CLEAR 81 58 45 CALM 29.81R MORRISTOWN PTCLDY 72 61 68 SW5 29.82R SOMERVILLE CLEAR 74 62 66 CALM 29.80R SUSSEX PTCLDY 72 64 76 SW3 29.82R ANDOVER N/A 72 63 73 CALM 29.84R TRENTON CLEAR 79 62 56 SW5 29.82R MILLVILLE CLEAR 81 71 71 SW3 29.84R ATLANTIC CITY CLEAR 78 72 81 S8 29.85R WRIGHTSTOWN CLEAR 79 64 60 SW6 29.81R TOMS RIVER N/A 75 70 83 S6 29.84R BELMAR CLEAR 79 66 65 SW5 29.83R $$ PAZ047>061-062-071-040300- EASTERN PENNSYLVANIA CITY SKY/WX TMP DP RH WIND PRES REMARKS PHILADELPHIA PTCLDY 83 66 56 SW8 29.83R ALLENTOWN MOCLDY 76 66 71 W6 29.83R SCRANTON MOCLDY 79 62 56 SW3 29.82R $$ CTZ002-004>006-009-010-012-RIZ004-006-007-MAZ004-011-015-040300- SOUTHERN NEW ENGLAND IN CT CITY SKY/WX TMP DP RH WIND PRES REMARKS BRADLEY INTL MOCLDY 78 67 68 S13 29.78R HARTFORD PTCLDY 79 69 71 S12 29.79R DANBURY CLEAR 76 65 68 VRB5 29.83R WTRBRY/OXFORD PTCLDY 73 64 73 S6 29.85R BRIDGEPORT PTCLDY 78 71 79 SW7 29.81R MERIDEN PTCLDY 78 69 73 S8 29.81R NEW HAVEN PTCLDY 76 71 85 SW8 29.81R CHESTER NOT AVBL GROTON CLEAR 73 70 90 SW7 29.82R WILLIMANTIC PTCLDY 77 68 73 S5 29.82R IN RI CITY SKY/WX TMP DP RH WIND PRES REMARKS PROVIDENCE PTCLDY 76 70 82 SW10 29.83R BLOCK ISLAND N/A 73 72 94 SW16 29.85R WESTERLY CLEAR 75 71 87 SW6 29.84R IN MA CITY SKY/WX TMP DP RH WIND PRES REMARKS BOSTON PTCLDY 77 66 68 SW12G20 29.80R WORCESTER PTCLDY 73 66 78 SW12 29.84R WESTFIELD MOCLDY 76 65 68 S6 29.79R PROVINCETOWN CLEAR 73 63 68 SW13G18 29.84R NANTUCKET PTCLDY 73 70 90 S13 29.87R $$ ANZ330-335-338-340-345-350-353-355-040300- COASTAL MARINE OBSERVATIONS STATION/POSITION TIME SKY/WX TEMP WIND PRES VSBY WAVE AIR SEA DIR/SP/G HT/PER (UTC) (F) (DEG/KT/KT) (MB) (MI) (FT/S) NY HARB ENTRANCE 0050 78 77 210/ 17/ 19 1008.4 5/ 6 4S FIRE IS NOT AVBL 20S FIRE ISLAND 0050 78 77 210/ 16/ 19 1009.2 5/ 6 GREAT SOUTH BAY 0130 78 81 220/ 16/ 19 N/A 23SW MTP 0150 77 75 220/ 17/ 21 1009.9 5/ 6 HUDSON CANYON NOT AVBL KINGS POINT 0100 80 73 200/ 10/ 11 1007.9 EXECUTION ROCKS 0100 79 180/ 6/ 8 N/A CENTRAL LI SOUND NOT AVBL EASTERN LI SOUND 0100 74 68 200/ 14/ 17 N/A ROBBINS REEF 0100 85 210/ 11/ 13 1007.7 $$ >>>>>>>>>>>>>>>>>>>>>>>>>>>> KEY <<<<<<<<<<<<<<<<<<<<<<<<<<< > < > SKY/WX - SKY CONDITION/PRESENT WEATHER < > TMP - TEMPERATURE IN FAHRENHEIT < > DP - DEWPOINT IN FAHRENHEIT < > RH - RELATIVE HUMIDITY IN PERCENT < > WIND - DIRECTION AND SPEED IN MPH < > PRES - MEAN SEA LEVEL PRESSURE IN INCHES OF HG < > WCI - WIND CHILL INDEX < > VSB - VISIBILITY IN MILES < > HX - HEAT INDEX < > TC - TEMPERATURE IN CELSIUS < > VRB - VARIABLE WIND DIRECTION < > < >>>>>>>>>>>>>>>>>>>>>>>>>>>> KEY <<<<<<<<<<<<<<<<<<<<<<<<<<<

USA.gov is the U.S. government's official web portal to all federal, state and local government web resources and services.